Вернуться в каталог

STARLINK-11252

АктивенСвязьVLEO
NORAD 61051·PAYLOAD·🇺🇸 United States

Запущен Sep 13, 2024 с Vandenberg Space Force Base

Loading…

Ближайшие Пролёты (ближайшие 24 часа)

TLE

СвежийSource: CelesTrak SupGP

Эпоха: Sep 15, 2026, 02:08 UTC

1 61051C 24164B   26258.08937500  .00066488  00000+0  54735-3 0  2581
2 61051  53.1562  97.5604 0001084  94.0779  20.3284 15.69691153    13

Отслеживайте STARLINK-11252 в реальном времени с AllMySat

Download on the App Store